| time (UTC) | temp F | wind direction | speed MPH | gust MPH | rain 1hr in | rain 24hr in | rain mn in | humidity % | barometer mb |
| 20260903213048 | 90 | 236 | 1.0 | 5.0 | 0.00 | 0.00 | 0.00 | 70 | 1013.4 |
| 20260903212549 | 90 | 77 | 2.0 | 5.0 | 0.00 | 0.00 | 0.00 | 68 | 1013.4 |
| 20260903212049 | 90 | 186 | 1.0 | 4.0 | 0.00 | 0.00 | 0.00 | 67 | 1013.5 |
| 20260903211549 | 91 | 105 | 1.0 | 4.0 | 0.00 | 0.00 | 0.00 | 66 | 1013.6 |
| 20260903211318 | 91 | 99 | 1.0 | 4.0 | 0.00 | 0.00 | 0.00 | 67 | 1013.7 |
| 20260903210547 | 91 | 210 | 1.0 | 4.0 | 0.00 | 0.00 | 0.00 | 65 | 1013.7 |
| 20260903210047 | 91 | 203 | 1.0 | 5.0 | 0.00 | 0.00 | 0.00 | 63 | 1013.8 |
| 20260903205548 | 91 | 123 | 1.0 | 5.0 | 0.00 | 0.00 | 0.00 | 61 | 1013.8 |
| 20260903205047 | 91 | 217 | 1.0 | 6.0 | 0.00 | 0.00 | 0.00 | 60 | 1013.8 |
| 20260903204546 | 91 | 208 | 2.0 | 9.0 | 0.00 | 0.00 | 0.00 | 60 | 1013.9 |
| 20260903204047 | 91 | 184 | 2.0 | 9.0 | 0.00 | 0.00 | 0.00 | 59 | 1013.9 |
| 20260903203547 | 92 | 79 | 1.0 | 6.0 | 0.00 | 0.00 | 0.00 | 58 | 1013.9 |
| 20260903203047 | 92 | 152 | 2.0 | 5.0 | 0.00 | 0.00 | 0.00 | 58 | 1013.9 |
| 20260903202547 | 92 | 207 | 2.0 | 5.0 | 0.00 | 0.00 | 0.00 | 59 | 1013.9 |
| 20260903202317 | 93 | 101 | 2.0 | 6.0 | 0.00 | 0.00 | 0.00 | 58 | 1013.9 |
| 20260903201545 | 92 | 149 | 2.0 | 6.0 | 0.00 | 0.00 | 0.00 | 59 | 1013.9 |
| 20260903201045 | 92 | 80 | 3.0 | 10.0 | 0.00 | 0.00 | 0.00 | 60 | 1014.0 |
| 20260903200545 | 92 | 191 | 4.0 | 10.0 | 0.00 | 0.00 | 0.00 | 59 | 1014.0 |
| 20260903200045 | 92 | 82 | 3.0 | 8.0 | 0.00 | 0.00 | 0.00 | 57 | 1014.0 |
| 20260903195545 | 92 | 91 | 2.0 | 8.0 | 0.00 | 0.00 | 0.00 | 59 | 1014.0 |
| 20260903195045 | 92 | 81 | 1.0 | 5.0 | 0.00 | 0.01 | 0.00 | 57 | 1014.1 |
| 20260903194545 | 92 | 208 | 2.0 | 5.0 | 0.00 | 0.01 | 0.00 | 60 | 1014.2 |
| 20260903194045 | 92 | 96 | 2.0 | 5.0 | 0.00 | 0.01 | 0.00 | 58 | 1014.3 |
| 20260903193545 | 92 | 65 | 2.0 | 5.0 | 0.00 | 0.01 | 0.00 | 57 | 1014.3 |
| 20260903193043 | 92 | 105 | 2.0 | 5.0 | 0.00 | 0.01 | 0.00 | 57 | 1014.4 |
| 20260903192818 | 92 | 141 | 2.0 | 4.0 | 0.00 | 0.01 | 0.00 | 58 | 1014.5 |
| 20260903192543 | 92 | 102 | 1.0 | 4.0 | 0.00 | 0.01 | 0.00 | 57 | 1014.5 |
| 20260903191543 | 92 | 89 | 3.0 | 7.0 | 0.00 | 0.01 | 0.00 | 56 | 1014.5 |
| 20260903191043 | 92 | 58 | 3.0 | 7.0 | 0.00 | 0.01 | 0.00 | 54 | 1014.4 |
| 20260903190543 | 92 | 113 | 3.0 | 7.0 | 0.00 | 0.01 | 0.00 | 56 | 1014.5 |
| 20260903190043 | 92 | 108 | 3.0 | 7.0 | 0.00 | 0.01 | 0.00 | 55 | 1014.5 |
| 20260903185543 | 92 | 129 | 3.0 | 8.0 | 0.00 | 0.01 | 0.00 | 56 | 1014.6 |
| 20260903185044 | 92 | 126 | 3.0 | 8.0 | 0.00 | 0.01 | 0.00 | 56 | 1014.7 |
| 20260903184543 | 92 | 70 | 3.0 | 7.0 | 0.00 | 0.01 | 0.00 | 55 | 1014.6 |
| 20260903184040 | 93 | 60 | 3.0 | 7.0 | 0.00 | 0.01 | 0.00 | 54 | 1014.7 |
| 20260903183541 | 93 | 155 | 3.0 | 7.0 | 0.00 | 0.01 | 0.00 | 57 | 1014.7 |
| 20260903183312 | 92 | 58 | 3.0 | 7.0 | 0.00 | 0.01 | 0.00 | 57 | 1014.7 |
| 20260903182541 | 92 | 48 | 3.0 | 6.0 | 0.00 | 0.01 | 0.00 | 56 | 1014.7 |
| 20260903182041 | 92 | 51 | 3.0 | 6.0 | 0.00 | 0.01 | 0.00 | 57 | 1014.7 |
| 20260903181541 | 92 | 65 | 3.0 | 8.0 | 0.00 | 0.01 | 0.00 | 58 | 1014.8 |
| 20260903181041 | 92 | 85 | 4.0 | 8.0 | 0.00 | 0.01 | 0.00 | 58 | 1014.9 |
| 20260903180541 | 92 | 66 | 2.0 | 7.0 | 0.00 | 0.01 | 0.00 | 57 | 1014.9 |
| 20260903180041 | 92 | 110 | 2.0 | 5.0 | 0.00 | 0.01 | 0.00 | 59 | 1014.9 |
| 20260903175540 | 91 | 79 | 2.0 | 7.0 | 0.00 | 0.01 | 0.00 | 62 | 1015.1 |
| 20260903175039 | 91 | 82 | 3.0 | 7.0 | 0.00 | 0.01 | 0.00 | 62 | 1015.1 |
| 20260903174810 | 91 | 79 | 4.0 | 8.0 | 0.00 | 0.01 | 0.00 | 64 | 1015.3 |
| 20260903174037 | 91 | 39 | 3.0 | 8.0 | 0.00 | 0.01 | 0.00 | 64 | 1015.3 |
| 20260903173537 | 91 | 37 | 3.0 | 7.0 | 0.00 | 0.01 | 0.00 | 65 | 1015.4 |
| 20260903173037 | 91 | 84 | 3.0 | 7.0 | 0.00 | 0.01 | 0.00 | 62 | 1015.4 |
| 20260903172537 | 91 | 42 | 3.0 | 7.0 | 0.00 | 0.01 | 0.00 | 63 | 1015.5 |
| 20260903172037 | 91 | 100 | 3.0 | 7.0 | 0.00 | 0.01 | 0.00 | 64 | 1015.7 |
| 20260903171535 | 91 | 66 | 2.0 | 5.0 | 0.00 | 0.01 | 0.00 | 64 | 1015.7 |
| 20260903171034 | 91 | 47 | 2.0 | 7.0 | 0.00 | 0.01 | 0.00 | 63 | 1015.8 |
| 20260903170535 | 91 | 71 | 2.0 | 7.0 | 0.00 | 0.01 | 0.00 | 63 | 1015.8 |
| 20260903170033 | 91 | 99 | 2.0 | 5.0 | 0.00 | 0.01 | 0.00 | 63 | 1015.9 |
| 20260903165532 | 92 | 73 | 2.0 | 5.0 | 0.00 | 0.01 | 0.00 | 62 | 1015.9 |
| 20260903165032 | 92 | 117 | 2.0 | 6.0 | 0.00 | 0.01 | 0.00 | 66 | 1016.0 |
| 20260903164533 | 91 | 11 | 3.0 | 6.0 | 0.00 | 0.01 | 0.00 | 64 | 1016.1 |
| 20260903164033 | 91 | 41 | 3.0 | 6.0 | 0.00 | 0.01 | 0.00 | 63 | 1016.1 |
| 20260903163532 | 91 | 79 | 2.0 | 5.0 | 0.00 | 0.01 | 0.00 | 64 | 1016.2 |
| 20260903163032 | 91 | 57 | 3.0 | 6.0 | 0.00 | 0.01 | 0.00 | 64 | 1016.2 |
| 20260903162803 | 91 | 97 | 3.0 | 6.0 | 0.00 | 0.01 | 0.00 | 63 | 1016.2 |
| 20260903162032 | 92 | 76 | 3.0 | 7.0 | 0.00 | 0.01 | 0.00 | 63 | 1016.3 |
| 20260903161531 | 92 | 84 | 3.0 | 7.0 | 0.00 | 0.01 | 0.00 | 65 | 1016.2 |
| 20260903161031 | 91 | 65 | 3.0 | 6.0 | 0.00 | 0.01 | 0.00 | 66 | 1016.2 |
| 20260903160530 | 91 | 65 | 3.0 | 10.0 | 0.00 | 0.01 | 0.00 | 66 | 1016.3 |
| 20260903160302 | 90 | 280 | 3.0 | 10.0 | 0.00 | 0.01 | 0.00 | 67 | 1016.2 |
| 20260903155912 | 90 | 115 | 2.0 | 5.0 | 0.00 | 0.01 | 0.00 | 72 | 1016.3 |
| 20260903155636 | 90 | 356 | 3.0 | 8.0 | 0.00 | 0.01 | 0.00 | 67 | 1016.3 |
| 20260903155632 | 90 | 44 | 3.0 | 7.0 | 0.00 | 0.01 | 0.00 | 67 | 1016.3 |
| 20260903155628 | 90 | 83 | 2.0 | 7.0 | 0.00 | 0.01 | 0.00 | 69 | 1016.3 |
| 20260903154029 | 90 | 115 | 2.0 | 5.0 | 0.00 | 0.01 | 0.00 | 72 | 1016.3 |
| 20260903153628 | 89 | 53 | 2.0 | 7.0 | 0.00 | 0.01 | 0.00 | 69 | 1016.2 |
| 20260903153624 | 89 | 89 | 3.0 | 7.0 | 0.00 | 0.01 | 0.00 | 71 | 1016.2 |
| 20260903153620 | 89 | 72 | 3.0 | 7.0 | 0.00 | 0.01 | 0.00 | 70 | 1016.2 |
| 20260903153616 | 89 | 2 | 3.0 | 7.0 | 0.00 | 0.01 | 0.00 | 70 | 1016.2 |
| 20260903152027 | 89 | 53 | 2.0 | 7.0 | 0.00 | 0.01 | 0.00 | 69 | 1016.2 |
| 20260903151527 | 89 | 51 | 3.0 | 7.0 | 0.00 | 0.01 | 0.00 | 70 | 1016.0 |
| 20260903151027 | 89 | 16 | 2.0 | 7.0 | 0.00 | 0.01 | 0.00 | 69 | 1016.0 |
| 20260903150525 | 89 | 45 | 2.0 | 4.0 | 0.00 | 0.01 | 0.00 | 69 | 1016.0 |
| 20260903150025 | 88 | 70 | 2.0 | 5.0 | 0.00 | 0.01 | 0.00 | 70 | 1016.0 |
| 20260903145525 | 88 | 59 | 2.0 | 6.0 | 0.00 | 0.01 | 0.00 | 70 | 1015.9 |
| 20260903145023 | 87 | 77 | 2.0 | 6.0 | 0.00 | 0.01 | 0.00 | 71 | 1015.9 |
| 20260903144522 | 87 | 323 | 3.0 | 7.0 | 0.00 | 0.01 | 0.00 | 72 | 1016.0 |
| 20260903144023 | 87 | 320 | 3.0 | 7.0 | 0.00 | 0.01 | 0.00 | 75 | 1016.0 |
| 20260903143521 | 87 | 33 | 2.0 | 7.0 | 0.00 | 0.01 | 0.00 | 74 | 1016.0 |
| 20260903143021 | 86 | 43 | 2.0 | 6.0 | 0.00 | 0.01 | 0.00 | 77 | 1016.0 |
| 20260903142521 | 86 | 57 | 2.0 | 6.0 | 0.00 | 0.01 | 0.00 | 76 | 1016.0 |
| 20260903142018 | 85 | 325 | 2.0 | 4.0 | 0.00 | 0.01 | 0.00 | 80 | 1016.1 |
| 20260903141749 | 84 | 60 | 1.0 | 5.0 | 0.00 | 0.01 | 0.00 | 78 | 1016.1 |
| 20260903141019 | 84 | 325 | 2.0 | 5.0 | 0.00 | 0.01 | 0.00 | 79 | 1016.1 |
| 20260903140519 | 84 | 29 | 3.0 | 6.0 | 0.00 | 0.01 | 0.00 | 79 | 1016.0 |
| 20260903140250 | 84 | 65 | 2.0 | 6.0 | 0.00 | 0.01 | 0.00 | 80 | 1016.0 |
| 20260903135519 | 83 | 75 | 2.0 | 4.0 | 0.00 | 0.01 | 0.00 | 80 | 1016.0 |
| 20260903135250 | 83 | 68 | 2.0 | 4.0 | 0.00 | 0.01 | 0.00 | 80 | 1016.1 |
| 20260903134517 | 83 | 63 | 1.0 | 4.0 | 0.00 | 0.01 | 0.00 | 81 | 1016.2 |
| 20260903134249 | 83 | 52 | 1.0 | 4.0 | 0.00 | 0.01 | 0.00 | 81 | 1016.2 |
| 20260903133517 | 83 | 47 | 2.0 | 6.0 | 0.00 | 0.01 | 0.00 | 81 | 1016.1 |
| 20260903133017 | 83 | 78 | 2.0 | 6.0 | 0.00 | 0.01 | 0.00 | 82 | 1016.1 |
| 20260903132748 | 83 | 68 | 2.0 | 7.0 | 0.00 | 0.01 | 0.00 | 83 | 1016.2 |
| 20260903132017 | 82 | 77 | 2.0 | 7.0 | 0.00 | 0.01 | 0.00 | 84 | 1016.0 |
| 20260903131517 | 82 | 63 | 2.0 | 4.0 | 0.00 | 0.01 | 0.00 | 86 | 1016.1 |
| 20260903131017 | 81 | 357 | 2.0 | 4.0 | 0.00 | 0.01 | 0.00 | 87 | 1016.0 |
| 20260903130516 | 80 | 75 | 1.0 | 4.0 | 0.00 | 0.01 | 0.00 | 89 | 1016.0 |
| 20260903130017 | 79 | 57 | 0.0 | 3.0 | 0.00 | 0.01 | 0.00 | 90 | 1016.0 |
| 20260903125517 | 78 | 88 | 0.0 | 2.0 | 0.00 | 0.01 | 0.00 | 92 | 1015.9 |
| 20260903125018 | 78 | 88 | 0.0 | 2.0 | 0.00 | 0.01 | 0.00 | 93 | 1015.9 |
| 20260903124517 | 77 | 114 | 0.0 | 1.0 | 0.00 | 0.01 | 0.00 | 93 | 1015.8 |
| 20260903124017 | 77 | 70 | 0.0 | 1.0 | 0.00 | 0.01 | 0.00 | 93 | 1015.9 |
| 20260903123517 | 77 | 70 | 0.0 | 2.0 | 0.00 | 0.01 | 0.00 | 93 | 1015.9 |
| 20260903123016 | 77 | 70 | 0.0 | 2.0 | 0.00 | 0.01 | 0.00 | 94 | 1016.0 |
| 20260903122745 | 77 | 141 | 0.0 | 1.0 | 0.00 | 0.01 | 0.00 | 94 | 1015.9 |
| 20260903122012 | 77 | 141 | 0.0 | 1.0 | 0.00 | 0.01 | 0.00 | 95 | 1015.8 |
| 20260903121512 | 77 | 141 | 0.0 | 1.0 | 0.00 | 0.01 | 0.00 | 95 | 1015.7 |
| 20260903121244 | 77 | 141 | 0.0 | 1.0 | 0.00 | 0.01 | 0.00 | 96 | 1015.7 |
| 20260903120510 | 76 | 141 | 0.0 | 1.0 | 0.00 | 0.01 | 0.00 | 96 | 1015.7 |
| 20260903120011 | 76 | 202 | 0.0 | 0.0 | 0.00 | 0.01 | 0.00 | 96 | 1015.6 |
| 20260903115511 | 76 | 202 | 0.0 | 0.0 | 0.00 | 0.01 | 0.00 | 96 | 1015.5 |
| 20260903115011 | 75 | 202 | 0.0 | 0.0 | 0.00 | 0.01 | 0.00 | 96 | 1015.5 |
| 20260903114511 | 75 | 202 | 0.0 | 0.0 | 0.00 | 0.01 | 0.00 | 96 | 1015.5 |
| 20260903114011 | 75 | 202 | 0.0 | 0.0 | 0.00 | 0.01 | 0.00 | 96 | 1015.5 |
| 20260903113511 | 75 | 202 | 0.0 | 0.0 | 0.00 | 0.01 | 0.00 | 95 | 1015.5 |
| 20260903113241 | 75 | 202 | 0.0 | 0.0 | 0.00 | 0.01 | 0.00 | 96 | 1015.4 |
| 20260903112509 | 75 | 202 | 0.0 | 0.0 | 0.00 | 0.01 | 0.00 | 96 | 1015.4 |
| 20260903112240 | 75 | 202 | 0.0 | 0.0 | 0.00 | 0.01 | 0.00 | 95 | 1015.3 |
| 20260903111508 | 75 | 202 | 0.0 | 0.0 | 0.00 | 0.01 | 0.00 | 95 | 1015.3 |
| 20260903111240 | 75 | 202 | 0.0 | 0.0 | 0.00 | 0.01 | 0.00 | 95 | 1015.4 |
| 20260903110740 | 75 | 202 | 0.0 | 0.0 | 0.00 | 0.01 | 0.00 | 95 | 1015.4 |
| 20260903110009 | 75 | 202 | 0.0 | 0.0 | 0.00 | 0.01 | 0.00 | 95 | 1015.4 |
| 20260903105508 | 75 | 202 | 0.0 | 0.0 | 0.00 | 0.01 | 0.00 | 95 | 1015.4 |
| 20260903105009 | 75 | 202 | 0.0 | 0.0 | 0.00 | 0.01 | 0.00 | 96 | 1015.3 |
| 20260903104508 | 75 | 202 | 0.0 | 0.0 | 0.00 | 0.01 | 0.00 | 96 | 1015.4 |
| 20260903104237 | 75 | 202 | 0.0 | 0.0 | 0.00 | 0.01 | 0.00 | 96 | 1015.3 |
| 20260903103506 | 75 | 202 | 0.0 | 0.0 | 0.00 | 0.01 | 0.00 | 96 | 1015.4 |
| 20260903103007 | 75 | 202 | 0.0 | 0.0 | 0.00 | 0.01 | 0.00 | 96 | 1015.3 |
| 20260903102505 | 75 | 202 | 0.0 | 0.0 | 0.00 | 0.01 | 0.00 | 96 | 1015.4 |
| 20260903102004 | 75 | 202 | 0.0 | 0.0 | 0.00 | 0.01 | 0.00 | 95 | 1015.3 |
| 20260903101505 | 74 | 202 | 0.0 | 0.0 | 0.00 | 0.01 | 0.00 | 95 | 1015.2 |
| 20260903101236 | 74 | 202 | 0.0 | 0.0 | 0.00 | 0.01 | 0.00 | 95 | 1015.2 |
| 20260903100735 | 74 | 202 | 0.0 | 0.0 | 0.00 | 0.01 | 0.00 | 95 | 1015.1 |
| 20260903100005 | 75 | 202 | 0.0 | 0.0 | 0.00 | 0.01 | 0.00 | 95 | 1015.1 |
| 20260903095504 | 75 | 202 | 0.0 | 0.0 | 0.00 | 0.01 | 0.00 | 95 | 1015.0 |
| 20260903095003 | 75 | 202 | 0.0 | 0.0 | 0.00 | 0.01 | 0.00 | 95 | 1014.9 |
| 20260903094502 | 75 | 202 | 0.0 | 0.0 | 0.00 | 0.01 | 0.00 | 95 | 1014.9 |
| 20260903094003 | 75 | 202 | 0.0 | 0.0 | 0.00 | 0.01 | 0.00 | 95 | 1015.0 |
| 20260903093503 | 75 | 202 | 0.0 | 0.0 | 0.00 | 0.01 | 0.00 | 95 | 1015.1 |
| 20260903093234 | 75 | 202 | 0.0 | 0.0 | 0.00 | 0.01 | 0.00 | 95 | 1015.1 |
| 20260903092501 | 75 | 202 | 0.0 | 0.0 | 0.00 | 0.01 | 0.00 | 95 | 1015.2 |
| 20260903092232 | 75 | 202 | 0.0 | 0.0 | 0.00 | 0.01 | 0.00 | 95 | 1015.1 |
| 20260903091501 | 75 | 202 | 0.0 | 0.0 | 0.00 | 0.01 | 0.00 | 95 | 1015.1 |
| 20260903090959 | 75 | 202 | 0.0 | 0.0 | 0.00 | 0.01 | 0.00 | 95 | 1015.1 |
| 20260903090457 | 75 | 202 | 0.0 | 0.0 | 0.00 | 0.01 | 0.00 | 95 | 1015.2 |
| 20260903085955 | 75 | 202 | 0.0 | 0.0 | 0.00 | 0.01 | 0.00 | 95 | 1015.2 |
| 20260903085454 | 75 | 202 | 0.0 | 0.0 | 0.00 | 0.01 | 0.00 | 95 | 1015.2 |
| 20260903084955 | 75 | 202 | 0.0 | 0.0 | 0.00 | 0.01 | 0.00 | 95 | 1015.2 |
| 20260903084453 | 76 | 202 | 0.0 | 0.0 | 0.00 | 0.01 | 0.00 | 95 | 1015.2 |
| 20260903083952 | 76 | 202 | 0.0 | 0.0 | 0.00 | 0.01 | 0.00 | 95 | 1015.1 |
| 20260903083453 | 76 | 202 | 0.0 | 0.0 | 0.00 | 0.01 | 0.00 | 95 | 1015.1 |
| 20260903083223 | 76 | 202 | 0.0 | 0.0 | 0.00 | 0.01 | 0.00 | 95 | 1015.1 |
| 20260903082451 | 76 | 202 | 0.0 | 0.0 | 0.00 | 0.01 | 0.00 | 95 | 1015.1 |
| 20260903081949 | 76 | 202 | 0.0 | 0.0 | 0.00 | 0.01 | 0.00 | 95 | 1015.1 |
| 20260903081449 | 75 | 202 | 0.0 | 0.0 | 0.00 | 0.01 | 0.00 | 95 | 1014.9 |
| 20260903080949 | 76 | 202 | 0.0 | 0.0 | 0.00 | 0.01 | 0.00 | 95 | 1015.1 |
| 20260903080447 | 76 | 202 | 0.0 | 0.0 | 0.00 | 0.01 | 0.00 | 95 | 1015.1 |
| 20260903075946 | 76 | 202 | 0.0 | 0.0 | 0.00 | 0.01 | 0.00 | 95 | 1015.1 |
| 20260903075445 | 76 | 202 | 0.0 | 0.0 | 0.00 | 0.01 | 0.00 | 95 | 1015.2 |
| 20260903074943 | 76 | 202 | 0.0 | 0.0 | 0.00 | 0.01 | 0.00 | 95 | 1015.3 |
| 20260903074443 | 76 | 202 | 0.0 | 0.0 | 0.00 | 0.01 | 0.00 | 95 | 1015.3 |
| 20260903073943 | 76 | 202 | 0.0 | 0.0 | 0.00 | 0.01 | 0.00 | 95 | 1015.2 |
| 20260903073712 | 76 | 202 | 0.0 | 0.0 | 0.00 | 0.01 | 0.00 | 95 | 1015.3 |
| 20260903073212 | 76 | 202 | 0.0 | 0.0 | 0.00 | 0.01 | 0.00 | 95 | 1015.3 |
| 20260903072439 | 76 | 202 | 0.0 | 0.0 | 0.00 | 0.01 | 0.00 | 95 | 1015.4 |
| 20260903072210 | 76 | 202 | 0.0 | 0.0 | 0.00 | 0.01 | 0.00 | 95 | 1015.4 |
| 20260903071437 | 77 | 202 | 0.0 | 0.0 | 0.00 | 0.01 | 0.00 | 95 | 1015.5 |
| 20260903070937 | 77 | 202 | 0.0 | 0.0 | 0.00 | 0.01 | 0.00 | 95 | 1015.5 |
| 20260903070434 | 77 | 202 | 0.0 | 0.0 | 0.00 | 0.01 | 0.00 | 95 | 1015.6 |
| 20260903065935 | 77 | 202 | 0.0 | 0.0 | 0.00 | 0.01 | 0.00 | 95 | 1015.5 |
| 20260903065434 | 77 | 202 | 0.0 | 0.0 | 0.00 | 0.01 | 0.00 | 95 | 1015.6 |
| 20260903064935 | 77 | 202 | 0.0 | 0.0 | 0.00 | 0.01 | 0.00 | 95 | 1015.7 |
| 20260903064435 | 77 | 202 | 0.0 | 0.0 | 0.00 | 0.01 | 0.00 | 95 | 1015.8 |
| 20260903063933 | 77 | 202 | 0.0 | 0.0 | 0.00 | 0.01 | 0.00 | 95 | 1015.8 |
| 20260903063433 | 77 | 202 | 0.0 | 0.0 | 0.00 | 0.01 | 0.00 | 95 | 1015.9 |
| 20260903063203 | 77 | 202 | 0.0 | 0.0 | 0.00 | 0.01 | 0.00 | 95 | 1015.9 |
| 20260903062432 | 77 | 202 | 0.0 | 0.0 | 0.00 | 0.01 | 0.00 | 95 | 1015.9 |
| 20260903061931 | 77 | 202 | 0.0 | 0.0 | 0.00 | 0.01 | 0.00 | 95 | 1015.9 |
| 20260903061430 | 77 | 202 | 0.0 | 0.0 | 0.00 | 0.01 | 0.00 | 95 | 1015.9 |
| 20260903061202 | 77 | 202 | 0.0 | 0.0 | 0.00 | 0.01 | 0.00 | 95 | 1015.9 |
| 20260903060429 | 77 | 202 | 0.0 | 0.0 | 0.00 | 0.01 | 0.00 | 95 | 1016.0 |
| 20260903055929 | 77 | 202 | 0.0 | 0.0 | 0.00 | 0.01 | 0.00 | 95 | 1016.0 |
| 20260903055427 | 77 | 202 | 0.0 | 0.0 | 0.00 | 0.01 | 0.00 | 95 | 1016.0 |
| 20260903054927 | 77 | 202 | 0.0 | 0.0 | 0.00 | 0.01 | 0.00 | 95 | 1015.9 |
| 20260903054427 | 77 | 202 | 0.0 | 0.0 | 0.00 | 0.01 | 0.00 | 95 | 1015.9 |
| 20260903053924 | 77 | 202 | 0.0 | 0.0 | 0.00 | 0.01 | 0.00 | 95 | 1016.0 |
| 20260903053425 | 77 | 202 | 0.0 | 0.0 | 0.00 | 0.01 | 0.00 | 95 | 1016.0 |
| 20260903052923 | 76 | 202 | 0.0 | 0.0 | 0.00 | 0.01 | 0.00 | 94 | 1016.0 |
| 20260903052423 | 77 | 202 | 0.0 | 0.0 | 0.00 | 0.01 | 0.00 | 94 | 1016.0 |
| 20260903051922 | 77 | 202 | 0.0 | 0.0 | 0.00 | 0.01 | 0.00 | 94 | 1015.9 |
| 20260903051421 | 77 | 202 | 0.0 | 0.0 | 0.00 | 0.01 | 0.00 | 94 | 1015.9 |
| 20260903050920 | 77 | 202 | 0.0 | 0.0 | 0.00 | 0.01 | 0.00 | 94 | 1015.9 |
| 20260903050421 | 77 | 202 | 0.0 | 0.0 | 0.00 | 0.01 | 0.00 | 94 | 1016.0 |
| 20260903045921 | 77 | 202 | 0.0 | 0.0 | 0.00 | 0.01 | 0.01 | 94 | 1016.0 |
| 20260903045421 | 77 | 202 | 0.0 | 0.0 | 0.00 | 0.01 | 0.01 | 94 | 1015.9 |
| 20260903045152 | 77 | 202 | 0.0 | 0.0 | 0.00 | 0.01 | 0.01 | 94 | 1016.0 |
| 20260903044421 | 77 | 202 | 0.0 | 0.0 | 0.00 | 0.01 | 0.01 | 94 | 1016.0 |
| 20260903044157 | 77 | 202 | 0.0 | 0.0 | 0.00 | 0.01 | 0.01 | 94 | 1016.0 |
| 20260903043921 | 77 | 202 | 0.0 | 0.0 | 0.00 | 0.01 | 0.01 | 94 | 1016.0 |
| 20260903042920 | 77 | 202 | 0.0 | 0.0 | 0.00 | 0.01 | 0.01 | 94 | 1016.0 |
| 20260903042419 | 77 | 202 | 0.0 | 0.0 | 0.00 | 0.01 | 0.01 | 94 | 1015.9 |
| 20260903041919 | 77 | 202 | 0.0 | 0.0 | 0.00 | 0.01 | 0.01 | 94 | 1015.9 |
| 20260903041419 | 77 | 202 | 0.0 | 0.0 | 0.00 | 0.01 | 0.01 | 94 | 1015.9 |
| 20260903040920 | 77 | 202 | 0.0 | 0.0 | 0.00 | 0.01 | 0.01 | 94 | 1015.8 |
| 20260903040651 | 77 | 202 | 0.0 | 0.0 | 0.00 | 0.01 | 0.01 | 94 | 1015.9 |
| 20260903035920 | 77 | 202 | 0.0 | 0.0 | 0.00 | 0.01 | 0.01 | 94 | 1015.9 |
| 20260903035419 | 77 | 202 | 0.0 | 0.0 | 0.00 | 0.01 | 0.01 | 94 | 1015.8 |
| 20260903034920 | 77 | 202 | 0.0 | 0.0 | 0.00 | 0.01 | 0.01 | 93 | 1015.9 |
| 20260903034418 | 77 | 202 | 0.0 | 0.0 | 0.00 | 0.01 | 0.01 | 93 | 1016.0 |
| 20260903033917 | 77 | 202 | 0.0 | 0.0 | 0.00 | 0.01 | 0.01 | 93 | 1016.0 |
| 20260903033417 | 77 | 202 | 0.0 | 0.0 | 0.00 | 0.01 | 0.01 | 93 | 1016.0 |
| 20260903032917 | 77 | 202 | 0.0 | 0.0 | 0.00 | 0.01 | 0.01 | 93 | 1016.0 |
| 20260903032417 | 77 | 202 | 0.0 | 0.0 | 0.00 | 0.01 | 0.01 | 93 | 1016.1 |
| 20260903031916 | 77 | 202 | 0.0 | 0.0 | 0.00 | 0.01 | 0.01 | 93 | 1016.1 |
| 20260903031417 | 77 | 202 | 0.0 | 0.0 | 0.00 | 0.01 | 0.01 | 93 | 1016.0 |
| 20260903030917 | 77 | 202 | 0.0 | 0.0 | 0.00 | 0.01 | 0.01 | 93 | 1016.0 |
| 20260903030417 | 77 | 202 | 0.0 | 0.0 | 0.00 | 0.01 | 0.01 | 92 | 1016.1 |
| 20260903025917 | 78 | 202 | 0.0 | 0.0 | 0.00 | 0.01 | 0.01 | 92 | 1016.0 |
| 20260903025417 | 78 | 202 | 0.0 | 0.0 | 0.00 | 0.01 | 0.01 | 92 | 1016.0 |
| 20260903024915 | 78 | 202 | 0.0 | 0.0 | 0.00 | 0.01 | 0.01 | 92 | 1015.9 |
| 20260903024415 | 78 | 202 | 0.0 | 0.0 | 0.00 | 0.01 | 0.01 | 92 | 1015.9 |
| 20260903023915 | 78 | 202 | 0.0 | 0.0 | 0.00 | 0.01 | 0.01 | 92 | 1015.9 |
| 20260903023415 | 78 | 202 | 0.0 | 0.0 | 0.00 | 0.01 | 0.01 | 92 | 1015.9 |
| 20260903022915 | 78 | 202 | 0.0 | 0.0 | 0.00 | 0.01 | 0.01 | 91 | 1016.0 |
| 20260903022415 | 78 | 202 | 0.0 | 0.0 | 0.00 | 0.01 | 0.01 | 91 | 1016.0 |
| 20260903021916 | 78 | 202 | 0.0 | 0.0 | 0.00 | 0.01 | 0.01 | 91 | 1015.9 |
| 20260903021415 | 78 | 202 | 0.0 | 0.0 | 0.00 | 0.01 | 0.01 | 91 | 1016.0 |
| 20260903020915 | 78 | 202 | 0.0 | 0.0 | 0.00 | 0.01 | 0.01 | 91 | 1015.9 |
| 20260903020414 | 79 | 202 | 0.0 | 0.0 | 0.00 | 0.01 | 0.01 | 91 | 1015.8 |
| 20260903015914 | 79 | 202 | 0.0 | 0.0 | 0.00 | 0.01 | 0.01 | 90 | 1015.9 |
| 20260903015413 | 79 | 202 | 0.0 | 0.0 | 0.00 | 0.01 | 0.01 | 90 | 1015.9 |
| 20260903014913 | 79 | 202 | 0.0 | 0.0 | 0.00 | 0.01 | 0.01 | 90 | 1015.8 |
| 20260903014413 | 79 | 202 | 0.0 | 0.0 | 0.00 | 0.01 | 0.01 | 90 | 1015.7 |
| 20260903014143 | 79 | 202 | 0.0 | 0.0 | 0.00 | 0.01 | 0.01 | 89 | 1015.7 |
| 20260903013413 | 79 | 202 | 0.0 | 0.0 | 0.00 | 0.01 | 0.01 | 89 | 1015.6 |
| 20260903013145 | 79 | 202 | 0.0 | 0.0 | 0.00 | 0.01 | 0.01 | 89 | 1015.5 |
| 20260903012413 | 80 | 202 | 0.0 | 0.0 | 0.00 | 0.01 | 0.01 | 89 | 1015.4 |
| 20260903011911 | 80 | 202 | 0.0 | 0.0 | 0.00 | 0.01 | 0.01 | 89 | 1015.4 |
| 20260903011412 | 80 | 202 | 0.0 | 0.0 | 0.00 | 0.01 | 0.01 | 88 | 1015.2 |
| 20260903011142 | 80 | 202 | 0.0 | 0.0 | 0.00 | 0.01 | 0.01 | 88 | 1015.2 |
| 20260903010411 | 80 | 202 | 0.0 | 0.0 | 0.00 | 0.01 | 0.01 | 88 | 1015.1 |
| 20260903005911 | 80 | 202 | 0.0 | 0.0 | 0.00 | 0.01 | 0.01 | 87 | 1015.1 |
| 20260903005411 | 80 | 202 | 0.0 | 0.0 | 0.00 | 0.01 | 0.01 | 87 | 1015.1 |
| 20260903004910 | 81 | 202 | 0.0 | 0.0 | 0.00 | 0.01 | 0.01 | 87 | 1015.1 |
| 20260903004409 | 81 | 202 | 0.0 | 0.0 | 0.00 | 0.01 | 0.01 | 86 | 1015.0 |
| 20260903003909 | 81 | 202 | 0.0 | 0.0 | 0.00 | 0.01 | 0.01 | 85 | 1014.9 |
| 20260903003410 | 82 | 202 | 0.0 | 0.0 | 0.00 | 0.01 | 0.01 | 84 | 1014.9 |
| 20260903002909 | 82 | 202 | 0.0 | 0.0 | 0.00 | 0.01 | 0.01 | 84 | 1014.9 |
| 20260903002409 | 82 | 202 | 0.0 | 0.0 | 0.00 | 0.01 | 0.01 | 82 | 1014.9 |
| 20260903001909 | 83 | 202 | 0.0 | 0.0 | 0.00 | 0.01 | 0.01 | 81 | 1014.9 |
| 20260903001409 | 83 | 202 | 0.0 | 0.0 | 0.00 | 0.01 | 0.01 | 80 | 1014.9 |
| 20260903001141 | 84 | 202 | 0.0 | 0.0 | 0.00 | 0.01 | 0.01 | 79 | 1014.8 |
| 20260903000410 | 84 | 202 | 0.0 | 0.0 | 0.00 | 0.01 | 0.01 | 77 | 1014.7 |
| 20260902235909 | 85 | 202 | 0.0 | 0.0 | 0.00 | 0.01 | 0.01 | 76 | 1014.8 |
| 20260902235406 | 86 | 202 | 0.0 | 0.0 | 0.00 | 0.01 | 0.01 | 74 | 1014.9 |
| 20260902235137 | 87 | 202 | 0.0 | 0.0 | 0.00 | 0.01 | 0.01 | 72 | 1014.9 |
| 20260902234639 | 88 | 202 | 0.0 | 1.0 | 0.00 | 0.01 | 0.01 | 69 | 1014.8 |
| 20260902233907 | 89 | 202 | 0.0 | 1.0 | 0.00 | 0.01 | 0.01 | 67 | 1014.8 |
| 20260902233407 | 89 | 200 | 0.0 | 1.0 | 0.00 | 0.01 | 0.01 | 66 | 1014.8 |
| 20260902232907 | 90 | 200 | 0.0 | 1.0 | 0.00 | 0.01 | 0.01 | 63 | 1014.8 |
| 20260902232407 | 91 | 200 | 0.0 | 2.0 | 0.00 | 0.01 | 0.01 | 62 | 1014.8 |
| 20260902231906 | 92 | 200 | 0.0 | 2.0 | 0.00 | 0.01 | 0.01 | 60 | 1014.8 |
| 20260902231407 | 92 | 216 | 1.0 | 2.0 | 0.00 | 0.01 | 0.01 | 59 | 1014.8 |
| 20260902230907 | 92 | 200 | 1.0 | 5.0 | 0.00 | 0.01 | 0.01 | 59 | 1014.8 |
| 20260902230405 | 92 | 188 | 1.0 | 5.0 | 0.00 | 0.01 | 0.01 | 58 | 1014.8 |
| 20260902225905 | 92 | 195 | 1.0 | 4.0 | 0.00 | 0.01 | 0.01 | 60 | 1014.8 |
| 20260902225636 | 92 | 215 | 1.0 | 4.0 | 0.00 | 0.01 | 0.01 | 58 | 1014.8 |
| 20260902225136 | 93 | 207 | 2.0 | 4.0 | 0.00 | 0.01 | 0.01 | 57 | 1014.9 |
| 20260902224405 | 93 | 182 | 1.0 | 4.0 | 0.00 | 0.01 | 0.01 | 57 | 1014.9 |
| 20260902223903 | 93 | 213 | 1.0 | 4.0 | 0.00 | 0.01 | 0.01 | 56 | 1014.9 |
| 20260902223403 | 93 | 209 | 1.0 | 4.0 | 0.00 | 0.01 | 0.01 | 57 | 1014.9 |
| 20260902222903 | 93 | 227 | 1.0 | 4.0 | 0.00 | 0.01 | 0.01 | 57 | 1014.9 |
| 20260902222403 | 93 | 186 | 1.0 | 4.0 | 0.00 | 0.01 | 0.01 | 60 | 1015.0 |
| 20260902221903 | 93 | 163 | 1.0 | 4.0 | 0.00 | 0.01 | 0.01 | 58 | 1015.0 |
| 20260902221403 | 92 | 71 | 1.0 | 4.0 | 0.00 | 0.01 | 0.01 | 56 | 1015.0 |
| 20260902220902 | 93 | 102 | 1.0 | 5.0 | 0.00 | 0.01 | 0.01 | 57 | 1015.0 |
| 20260902220634 | 93 | 98 | 1.0 | 5.0 | 0.00 | 0.01 | 0.01 | 55 | 1015.1 |
| 20260902215903 | 93 | 220 | 1.0 | 5.0 | 0.00 | 0.01 | 0.01 | 57 | 1015.1 |
| 20260902215634 | 93 | 214 | 1.0 | 4.0 | 0.00 | 0.01 | 0.01 | 57 | 1015.1 |
| 20260902214903 | 93 | 217 | 2.0 | 5.0 | 0.00 | 0.01 | 0.01 | 60 | 1015.1 |
| 20260902214402 | 93 | 189 | 1.0 | 5.0 | 0.00 | 0.01 | 0.01 | 60 | 1015.2 |
| 20260902213903 | 92 | 216 | 1.0 | 4.0 | 0.00 | 0.01 | 0.01 | 61 | 1015.2 |
| 20260902213401 | 92 | 208 | 1.0 | 5.0 | 0.00 | 0.01 | 0.01 | 64 | 1015.2 |